Location: Az?znagar
(16.8373°N, 80.5091°E)
Time: 16:41:55
(UTC+00:00)

Cosmos 2208 Rocket - Pass Details

Date: 04 December 2021
Orbit: 754 x 805 km, 74.0° (Epoch: 18 January)

Event Time Altitude Azimuth Distance (km) Brightness Sun altitude
Exits shadow 23:59:18 - 342° (NNW) 3,097 6.8 -12.7°
Reaches altitude 10° 00:01:13 10° 340° (NNW) 2,357 6.2 -12.3°
Maximum altitude 00:06:32 68° 258° (WSW) 844 4.0 -11.1°
Drops below altitude 10° 00:11:46 10° 176° (S) 2,320 6.8 -9.9°
Sets 00:14:09 0° 173° (S) 3,238 7.6 -9.4°
